User: anonymous   Login
Location: Mentone
(34.5413°N, 85.5351°W)
Time: 17:31:43
(UTC-05:00)
Language:

Uosat F - Orbit

View from above orbital plane
View from above orbital plane
View from above satellite
View from above satellite

Ground track
Ground track

The orbit data is extracted from the following two-line orbital elements,

1 21575U 91050B   16146.91343151  .00000035  00000-0  25330-4 0  9995
2 21575  98.7605 147.9339 0007700  21.4515 338.6994 14.40740327305513
Epoch (UTC): 25 May 2016 21:55:20
Eccentricity: 0.0007700
inclination: 98.7605°
perigee height: 750 km
apogee height: 761 km
right ascension of ascending node: 147.9339°
argument of perigee: 21.4515°
revolutions per day: 14.40740327
mean anomaly at epoch: 338.6994°
orbit number at epoch: 30551

The dashed part of the orbit path shows where the satellite is in the earth's shadow,  

DLR